STARLINK-35255

Last updated on Tue Oct 14 2025 00:02:05 GMT+0000 (Coordinated Universal Time)

1 65602U 25207L 25286.58341435 .00131892 00000+0 33349-2 0 9998 2 65602 97.6035 350.0582 0001859 90.6320 277.0341 15.39262312 5987

Satellite not in orbit

STARLINK-35255